| time (UTC) | temp F | wind direction | speed MPH | gust MPH | rain 1hr in | rain 24hr in | rain mn in | humidity % | barometer mb |
| 20260831230101 | 71 | 140 | 0.0 | 1.0 | 0.00 | 0.10 | 0.00 | 89 | 1018.7 |
| 20260831230045 | 71 | 0 | 0.0 | 1.0 | 0.00 | 0.10 | 0.00 | 88 | 1019.1 |
| 20260831225842 | 72 | 140 | 0.0 | 1.0 | 0.00 | 0.10 | 0.00 | 89 | 1019.2 |
| 20260831225353 | 72 | 140 | 0.0 | 1.0 | 0.00 | 0.10 | 0.00 | 89 | 1019.2 |
| 20260831224843 | 72 | 140 | 0.0 | 1.0 | 0.00 | 0.10 | 0.00 | 89 | 1019.3 |
| 20260831224614 | 71 | 140 | 0.0 | 0.0 | 0.00 | 0.10 | 0.00 | 89 | 1018.7 |
| 20260831224555 | 71 | 0 | 0.0 | 1.0 | 0.00 | 0.10 | 0.00 | 88 | 1019.0 |
| 20260831224354 | 72 | 140 | 0.0 | 1.0 | 0.00 | 0.10 | 0.00 | 89 | 1019.2 |
| 20260831223843 | 72 | 140 | 0.0 | 2.0 | 0.00 | 0.10 | 0.00 | 89 | 1019.2 |
| 20260831223356 | 72 | 131 | 1.0 | 2.0 | 0.00 | 0.10 | 0.00 | 89 | 1019.2 |
| 20260831223101 | 72 | 168 | 0.0 | 2.0 | 0.00 | 0.10 | 0.00 | 89 | 1018.7 |
| 20260831223048 | 72 | 171 | 0.0 | 1.0 | 0.00 | 0.10 | 0.00 | 88 | 1018.9 |
| 20260831222844 | 72 | 133 | 0.0 | 1.0 | 0.00 | 0.10 | 0.00 | 88 | 1019.2 |
| 20260831222353 | 72 | 133 | 0.0 | 2.0 | 0.00 | 0.10 | 0.00 | 88 | 1019.3 |
| 20260831221844 | 72 | 198 | 0.0 | 2.0 | 0.00 | 0.10 | 0.00 | 88 | 1019.4 |
| 20260831221611 | 72 | 211 | 0.0 | 2.0 | 0.00 | 0.10 | 0.00 | 88 | 1018.9 |
| 20260831221554 | 72 | 0 | 0.0 | 2.0 | 0.00 | 0.10 | 0.00 | 88 | 1019.2 |
| 20260831221334 | 72 | 219 | 0.0 | 2.0 | 0.00 | 0.10 | 0.00 | 88 | 1019.3 |
| 20260831220845 | 72 | 124 | 0.0 | 1.0 | 0.00 | 0.10 | 0.00 | 88 | 1019.4 |
| 20260831220356 | 72 | 171 | 0.0 | 3.0 | 0.00 | 0.10 | 0.00 | 87 | 1019.3 |
| 20260831220053 | 72 | 0 | 0.0 | 3.0 | 0.00 | 0.10 | 0.00 | 87 | 1019.2 |
| 20260831215905 | 72 | 225 | 1.0 | 3.0 | 0.00 | 0.10 | 0.00 | 87 | 1019.4 |
| 20260831215335 | 73 | 122 | 1.0 | 2.0 | 0.00 | 0.10 | 0.00 | 88 | 1019.3 |
| 20260831214844 | 73 | 141 | 0.0 | 1.0 | 0.00 | 0.10 | 0.00 | 87 | 1019.2 |
| 20260831214613 | 72 | 141 | 0.0 | 1.0 | 0.00 | 0.10 | 0.00 | 87 | 1018.8 |
| 20260831214548 | 72 | 0 | 0.0 | 1.0 | 0.00 | 0.10 | 0.00 | 87 | 1019.2 |
| 20260831214335 | 73 | 141 | 0.0 | 1.0 | 0.00 | 0.10 | 0.00 | 87 | 1019.3 |
| 20260831213907 | 73 | 167 | 0.0 | 1.0 | 0.00 | 0.10 | 0.00 | 87 | 1019.4 |
| 20260831213355 | 73 | 126 | 0.0 | 1.0 | 0.00 | 0.10 | 0.00 | 87 | 1019.3 |
| 20260831213102 | 73 | 126 | 0.0 | 1.0 | 0.00 | 0.10 | 0.00 | 86 | 1018.7 |
| 20260831213043 | 73 | 0 | 0.0 | 1.0 | 0.00 | 0.10 | 0.00 | 85 | 1019.0 |
| 20260831212843 | 73 | 126 | 0.0 | 1.0 | 0.00 | 0.10 | 0.00 | 86 | 1019.3 |
| 20260831212414 | 73 | 118 | 0.0 | 1.0 | 0.00 | 0.10 | 0.00 | 86 | 1019.1 |
| 20260831211844 | 74 | 219 | 0.0 | 2.0 | 0.00 | 0.10 | 0.00 | 86 | 1019.2 |
| 20260831211612 | 73 | 116 | 0.0 | 2.0 | 0.00 | 0.10 | 0.00 | 86 | 1018.7 |
| 20260831211555 | 73 | 0 | 0.0 | 2.0 | 0.00 | 0.10 | 0.00 | 85 | 1019.1 |
| 20260831211334 | 74 | 109 | 1.0 | 2.0 | 0.00 | 0.10 | 0.00 | 86 | 1019.2 |
| 20260831210845 | 74 | 152 | 0.0 | 1.0 | 0.00 | 0.10 | 0.00 | 85 | 1019.2 |
| 20260831210340 | 74 | 171 | 0.0 | 1.0 | 0.00 | 0.10 | 0.00 | 84 | 1019.3 |
| 20260831210050 | 74 | 0 | 0.0 | 2.0 | 0.00 | 0.10 | 0.00 | 84 | 1019.1 |
| 20260831210002 | 74 | 132 | 0.0 | 1.0 | 0.00 | 0.10 | 0.00 | 84 | 1018.8 |
| 20260831205902 | 74 | 132 | 0.0 | 2.0 | 0.00 | 0.10 | 0.00 | 84 | 1019.2 |
| 20260831205335 | 75 | 215 | 0.0 | 2.0 | 0.00 | 0.10 | 0.00 | 84 | 1019.3 |
| 20260831204847 | 75 | 116 | 0.0 | 2.0 | 0.00 | 0.10 | 0.00 | 83 | 1019.3 |
| 20260831204610 | 74 | 116 | 0.0 | 2.0 | 0.00 | 0.10 | 0.00 | 83 | 1018.7 |
| 20260831204546 | 75 | 0 | 0.0 | 2.0 | 0.00 | 0.10 | 0.00 | 83 | 1019.1 |
| 20260831204334 | 75 | 109 | 1.0 | 2.0 | 0.00 | 0.10 | 0.00 | 83 | 1019.2 |
| 20260831203843 | 75 | 143 | 0.0 | 3.0 | 0.00 | 0.10 | 0.00 | 82 | 1019.2 |
| 20260831203414 | 75 | 159 | 1.0 | 4.0 | 0.00 | 0.10 | 0.00 | 82 | 1019.0 |
| 20260831203112 | 75 | 103 | 1.0 | 4.0 | 0.00 | 0.10 | 0.00 | 82 | 1018.5 |
| 20260831203043 | 75 | 135 | 0.0 | 4.0 | 0.00 | 0.10 | 0.00 | 82 | 1018.8 |
| 20260831202839 | 75 | 163 | 1.0 | 4.0 | 0.00 | 0.10 | 0.00 | 83 | 1019.0 |
| 20260831202347 | 75 | 150 | 0.0 | 1.0 | 0.00 | 0.10 | 0.00 | 84 | 1019.1 |
| 20260831201837 | 75 | 192 | 0.0 | 2.0 | 0.00 | 0.10 | 0.00 | 83 | 1019.3 |
| 20260831201601 | 75 | 150 | 0.0 | 2.0 | 0.00 | 0.10 | 0.00 | 84 | 1018.8 |
| 20260831201554 | 75 | 0 | 0.0 | 2.0 | 0.00 | 0.10 | 0.00 | 83 | 1019.0 |
| 20260831201347 | 75 | 143 | 0.0 | 2.0 | 0.00 | 0.10 | 0.00 | 83 | 1019.2 |
| 20260831200837 | 76 | 131 | 0.0 | 3.0 | 0.00 | 0.10 | 0.00 | 84 | 1019.4 |
| 20260831200348 | 76 | 73 | 1.0 | 3.0 | 0.00 | 0.10 | 0.00 | 82 | 1019.4 |
| 20260831200108 | 75 | 91 | 0.0 | 3.0 | 0.00 | 0.10 | 0.00 | 82 | 1019.0 |
| 20260831200058 | 75 | 0 | 1.0 | 3.0 | 0.00 | 0.10 | 0.00 | 82 | 1019.3 |
| 20260831195855 | 76 | 164 | 1.0 | 3.0 | 0.00 | 0.10 | 0.00 | 82 | 1019.5 |
| 20260831195344 | 76 | 156 | 0.0 | 3.0 | 0.00 | 0.10 | 0.00 | 82 | 1019.5 |
| 20260831194835 | 76 | 165 | 1.0 | 3.0 | 0.00 | 0.10 | 0.00 | 80 | 1019.6 |
| 20260831194639 | 75 | 174 | 0.0 | 3.0 | 0.00 | 0.10 | 0.00 | 80 | 1019.1 |
| 20260831194615 | 75 | 0 | 0.0 | 3.0 | 0.00 | 0.10 | 0.00 | 79 | 1019.4 |
| 20260831194405 | 76 | 174 | 1.0 | 3.0 | 0.00 | 0.10 | 0.00 | 80 | 1019.6 |
| 20260831193836 | 76 | 106 | 0.0 | 3.0 | 0.00 | 0.10 | 0.00 | 79 | 1019.8 |
| 20260831193347 | 76 | 107 | 0.0 | 3.0 | 0.00 | 0.10 | 0.00 | 78 | 1019.8 |
| 20260831193114 | 76 | 106 | 0.0 | 3.0 | 0.00 | 0.10 | 0.00 | 80 | 1019.2 |
| 20260831193054 | 76 | 106 | 0.0 | 3.0 | 0.00 | 0.10 | 0.00 | 78 | 1019.5 |
| 20260831192834 | 77 | 96 | 0.0 | 2.0 | 0.00 | 0.10 | 0.00 | 79 | 1019.7 |
| 20260831192344 | 77 | 157 | 0.0 | 3.0 | 0.00 | 0.10 | 0.00 | 77 | 1019.7 |
| 20260831191835 | 77 | 225 | 1.0 | 3.0 | 0.00 | 0.10 | 0.00 | 76 | 1019.8 |
| 20260831191603 | 77 | 168 | 0.0 | 1.0 | 0.00 | 0.10 | 0.00 | 76 | 1019.4 |
| 20260831191549 | 77 | 0 | 0.0 | 1.0 | 0.00 | 0.10 | 0.00 | 76 | 1019.6 |
| 20260831191406 | 77 | 126 | 0.0 | 1.0 | 0.00 | 0.10 | 0.00 | 76 | 1019.9 |
| 20260831190836 | 77 | 128 | 1.0 | 2.0 | 0.00 | 0.10 | 0.00 | 75 | 1019.9 |
| 20260831190348 | 77 | 138 | 1.0 | 2.0 | 0.00 | 0.10 | 0.00 | 79 | 1019.9 |
| 20260831190130 | 77 | 147 | 0.0 | 2.0 | 0.00 | 0.10 | 0.00 | 72 | 1019.5 |
| 20260831190107 | 77 | 117 | 0.0 | 2.0 | 0.00 | 0.10 | 0.00 | 71 | 1019.8 |
| 20260831185836 | 78 | 142 | 1.0 | 2.0 | 0.00 | 0.10 | 0.00 | 77 | 1020.1 |
| 20260831185346 | 79 | 360 | 0.0 | 3.0 | 0.00 | 0.10 | 0.00 | 71 | 1020.2 |
| 20260831184835 | 78 | 125 | 1.0 | 3.0 | 0.00 | 0.10 | 0.00 | 78 | 1020.1 |
| 20260831184609 | 78 | 166 | 0.0 | 3.0 | 0.00 | 0.10 | 0.00 | 73 | 1019.6 |
| 20260831184602 | 78 | 166 | 1.0 | 3.0 | 0.00 | 0.10 | 0.00 | 73 | 1020.0 |
| 20260831184346 | 79 | 234 | 1.0 | 3.0 | 0.00 | 0.10 | 0.00 | 72 | 1020.3 |
| 20260831183835 | 79 | 350 | 1.0 | 2.0 | 0.00 | 0.10 | 0.00 | 73 | 1020.4 |
| 20260831183346 | 78 | 167 | 1.0 | 3.0 | 0.00 | 0.10 | 0.00 | 76 | 1020.3 |
| 20260831183111 | 77 | 167 | 1.0 | 3.0 | 0.00 | 0.10 | 0.00 | 75 | 1019.7 |
| 20260831183051 | 77 | 223 | 0.0 | 4.0 | 0.00 | 0.10 | 0.00 | 74 | 1019.9 |
| 20260831182834 | 77 | 169 | 0.0 | 4.0 | 0.00 | 0.10 | 0.00 | 76 | 1020.1 |
| 20260831182345 | 78 | 142 | 1.0 | 4.0 | 0.00 | 0.10 | 0.00 | 72 | 1020.2 |
| 20260831181853 | 78 | 190 | 1.0 | 6.0 | 0.00 | 0.10 | 0.00 | 76 | 1020.3 |
| 20260831181604 | 78 | 123 | 0.0 | 6.0 | 0.00 | 0.10 | 0.00 | 73 | 1019.7 |
| 20260831181550 | 78 | 123 | 1.0 | 6.0 | 0.00 | 0.10 | 0.00 | 70 | 1020.0 |
| 20260831181342 | 78 | 99 | 1.0 | 6.0 | 0.00 | 0.10 | 0.00 | 77 | 1020.3 |
| 20260831180357 | 79 | 157 | 0.0 | 1.0 | 0.00 | 0.10 | 0.00 | 69 | 1020.5 |
| 20260831180116 | 79 | 45 | 0.0 | 2.0 | 0.00 | 0.10 | 0.00 | 68 | 1020.1 |
| 20260831180054 | 80 | 158 | 0.0 | 3.0 | 0.00 | 0.10 | 0.00 | 69 | 1020.3 |
| 20260831175843 | 80 | 159 | 0.0 | 3.0 | 0.00 | 0.10 | 0.00 | 76 | 1020.6 |
| 20260831175353 | 78 | 60 | 1.0 | 3.0 | 0.00 | 0.10 | 0.00 | 77 | 1020.6 |
| 20260831174843 | 77 | 130 | 1.0 | 3.0 | 0.00 | 0.10 | 0.00 | 75 | 1020.6 |
| 20260831174611 | 77 | 190 | 0.0 | 3.0 | 0.00 | 0.10 | 0.00 | 71 | 1020.3 |
| 20260831174608 | 77 | 0 | 0.0 | 4.0 | 0.00 | 0.10 | 0.00 | 70 | 1020.5 |
| 20260831174353 | 78 | 142 | 1.0 | 4.0 | 0.00 | 0.10 | 0.00 | 76 | 1020.8 |
| 20260831173843 | 78 | 159 | 1.0 | 4.0 | 0.00 | 0.10 | 0.00 | 81 | 1020.9 |
| 20260831173416 | 77 | 163 | 1.0 | 3.0 | 0.00 | 0.10 | 0.00 | 72 | 1020.9 |
| 20260831173122 | 77 | 309 | 0.0 | 3.0 | 0.00 | 0.10 | 0.00 | 71 | 1020.4 |
| 20260831173046 | 77 | 281 | 0.0 | 4.0 | 0.00 | 0.10 | 0.00 | 70 | 1020.5 |
| 20260831172842 | 77 | 113 | 0.0 | 4.0 | 0.00 | 0.10 | 0.00 | 75 | 1020.9 |
| 20260831172351 | 77 | 107 | 1.0 | 4.0 | 0.00 | 0.10 | 0.00 | 74 | 1020.8 |
| 20260831171841 | 77 | 128 | 1.0 | 3.0 | 0.00 | 0.10 | 0.00 | 73 | 1020.7 |
| 20260831171610 | 77 | 167 | 0.0 | 3.0 | 0.00 | 0.10 | 0.00 | 78 | 1020.1 |
| 20260831171543 | 77 | 180 | 1.0 | 4.0 | 0.00 | 0.10 | 0.00 | 75 | 1020.3 |
| 20260831171413 | 78 | 77 | 2.0 | 3.0 | 0.00 | 0.10 | 0.00 | 76 | 1020.6 |
| 20260831170902 | 78 | 105 | 1.0 | 6.0 | 0.00 | 0.10 | 0.00 | 72 | 1020.7 |
| 20260831170414 | 79 | 235 | 2.0 | 6.0 | 0.00 | 0.10 | 0.00 | 71 | 1020.6 |
| 20260831170117 | 78 | 169 | 2.0 | 4.0 | 0.00 | 0.10 | 0.00 | 76 | 1020.0 |
| 20260831170058 | 78 | 145 | 1.0 | 5.0 | 0.00 | 0.10 | 0.00 | 73 | 1020.1 |
| 20260831165840 | 78 | 240 | 2.0 | 4.0 | 0.00 | 0.10 | 0.00 | 74 | 1020.6 |
| 20260831165349 | 78 | 148 | 1.0 | 4.0 | 0.00 | 0.10 | 0.00 | 75 | 1020.8 |
| 20260831164838 | 77 | 132 | 2.0 | 4.0 | 0.00 | 0.10 | 0.00 | 71 | 1021.0 |
| 20260831164610 | 76 | 167 | 1.0 | 4.0 | 0.00 | 0.10 | 0.00 | 77 | 1020.4 |
| 20260831164557 | 76 | 156 | 1.0 | 4.0 | 0.00 | 0.10 | 0.00 | 77 | 1020.5 |
| 20260831164410 | 77 | 192 | 2.0 | 4.0 | 0.00 | 0.10 | 0.00 | 74 | 1020.8 |
| 20260831163840 | 77 | 147 | 2.0 | 4.0 | 0.00 | 0.10 | 0.00 | 77 | 1020.9 |
| 20260831163352 | 79 | 5 | 0.0 | 2.0 | 0.00 | 0.10 | 0.00 | 75 | 1021.0 |
| 20260831163118 | 77 | 285 | 0.0 | 2.0 | 0.00 | 0.10 | 0.00 | 76 | 1020.5 |
| 20260831163055 | 77 | 323 | 0.0 | 2.0 | 0.00 | 0.10 | 0.00 | 76 | 1020.5 |
| 20260831162838 | 77 | 204 | 0.0 | 2.0 | 0.00 | 0.10 | 0.00 | 75 | 1021.1 |
| 20260831162349 | 75 | 242 | 0.0 | 6.0 | 0.00 | 0.10 | 0.00 | 78 | 1021.0 |
| 20260831161838 | 75 | 173 | 1.0 | 6.0 | 0.00 | 0.10 | 0.00 | 79 | 1021.0 |
| 20260831161607 | 75 | 167 | 1.0 | 5.0 | 0.00 | 0.10 | 0.00 | 76 | 1020.5 |
| 20260831161551 | 75 | 183 | 1.0 | 6.0 | 0.00 | 0.10 | 0.00 | 76 | 1020.5 |
| 20260831161410 | 75 | 166 | 1.0 | 5.0 | 0.00 | 0.10 | 0.00 | 79 | 1021.1 |
| 20260831160840 | 76 | 91 | 2.0 | 7.0 | 0.00 | 0.10 | 0.00 | 77 | 1021.0 |
| 20260831160350 | 76 | 194 | 1.0 | 7.0 | 0.00 | 0.10 | 0.00 | 72 | 1021.1 |
| 20260831160117 | 76 | 168 | 2.0 | 7.0 | 0.00 | 0.10 | 0.00 | 79 | 1020.7 |
| 20260831160058 | 76 | 198 | 1.0 | 4.0 | 0.00 | 0.10 | 0.00 | 77 | 1020.8 |
| 20260831155836 | 76 | 152 | 1.0 | 4.0 | 0.00 | 0.10 | 0.00 | 77 | 1021.2 |
| 20260831155348 | 75 | 134 | 2.0 | 4.0 | 0.00 | 0.10 | 0.00 | 78 | 1021.1 |
| 20260831154839 | 74 | 204 | 0.0 | 1.0 | 0.00 | 0.10 | 0.00 | 83 | 1021.2 |
| 20260831154649 | 73 | 204 | 0.0 | 3.0 | 0.00 | 0.10 | 0.00 | 83 | 1020.8 |
| 20260831154619 | 73 | 0 | 0.0 | 3.0 | 0.00 | 0.10 | 0.00 | 83 | 1021.0 |
| 20260831154349 | 73 | 204 | 0.0 | 3.0 | 0.00 | 0.10 | 0.00 | 81 | 1021.3 |
| 20260831153838 | 74 | 195 | 1.0 | 2.0 | 0.00 | 0.10 | 0.00 | 82 | 1021.2 |
| 20260831153348 | 74 | 134 | 1.0 | 3.0 | 0.00 | 0.10 | 0.00 | 83 | 1021.1 |
| 20260831153113 | 73 | 165 | 0.0 | 3.0 | 0.00 | 0.10 | 0.00 | 85 | 1020.5 |
| 20260831153102 | 73 | 0 | 0.0 | 4.0 | 0.00 | 0.10 | 0.00 | 82 | 1020.7 |
| 20260831152839 | 74 | 199 | 1.0 | 3.0 | 0.00 | 0.10 | 0.00 | 82 | 1021.1 |
| 20260831152349 | 74 | 211 | 1.0 | 5.0 | 0.00 | 0.10 | 0.00 | 85 | 1021.2 |
| 20260831151837 | 74 | 264 | 1.0 | 5.0 | 0.00 | 0.10 | 0.00 | 85 | 1021.3 |
| 20260831151622 | 73 | 150 | 1.0 | 5.0 | 0.00 | 0.10 | 0.00 | 84 | 1020.8 |
| 20260831151552 | 73 | 180 | 1.0 | 6.0 | 0.00 | 0.10 | 0.00 | 83 | 1020.8 |
| 20260831151346 | 74 | 105 | 2.0 | 6.0 | 0.00 | 0.10 | 0.00 | 84 | 1021.3 |
| 20260831150836 | 74 | 182 | 1.0 | 6.0 | 0.00 | 0.10 | 0.00 | 83 | 1021.2 |
| 20260831150347 | 74 | 107 | 2.0 | 5.0 | 0.00 | 0.10 | 0.00 | 84 | 1021.1 |
| 20260831150109 | 74 | 48 | 1.0 | 5.0 | 0.00 | 0.10 | 0.00 | 84 | 1020.8 |
| 20260831150048 | 74 | 148 | 1.0 | 5.0 | 0.00 | 0.10 | 0.00 | 83 | 1020.8 |
| 20260831145855 | 74 | 247 | 1.0 | 5.0 | 0.00 | 0.10 | 0.00 | 81 | 1021.3 |
| 20260831145345 | 74 | 137 | 2.0 | 5.0 | 0.00 | 0.10 | 0.00 | 82 | 1021.3 |
| 20260831144853 | 74 | 192 | 2.0 | 3.0 | 0.00 | 0.10 | 0.00 | 83 | 1021.4 |
| 20260831144617 | 73 | 182 | 0.0 | 3.0 | 0.00 | 0.10 | 0.00 | 85 | 1020.9 |
| 20260831144557 | 73 | 0 | 0.0 | 4.0 | 0.00 | 0.10 | 0.00 | 85 | 1021.0 |
| 20260831144338 | 73 | 226 | 0.0 | 2.0 | 0.00 | 0.10 | 0.00 | 86 | 1021.4 |
| 20260831143847 | 73 | 226 | 0.0 | 2.0 | 0.00 | 0.10 | 0.00 | 87 | 1021.3 |
| 20260831143357 | 73 | 194 | 0.0 | 2.0 | 0.00 | 0.10 | 0.00 | 86 | 1021.3 |
| 20260831143114 | 72 | 194 | 0.0 | 2.0 | 0.00 | 0.10 | 0.00 | 87 | 1020.8 |
| 20260831143053 | 72 | 135 | 0.0 | 2.0 | 0.00 | 0.10 | 0.00 | 86 | 1021.0 |
| 20260831142845 | 73 | 144 | 0.0 | 1.0 | 0.00 | 0.10 | 0.00 | 86 | 1021.3 |
| 20260831142334 | 73 | 113 | 0.0 | 2.0 | 0.00 | 0.10 | 0.00 | 88 | 1021.3 |
| 20260831141846 | 73 | 286 | 0.0 | 4.0 | 0.00 | 0.10 | 0.00 | 87 | 1021.2 |
| 20260831141617 | 72 | 298 | 0.0 | 4.0 | 0.00 | 0.10 | 0.00 | 87 | 1020.7 |
| 20260831141555 | 72 | 0 | 0.0 | 4.0 | 0.00 | 0.10 | 0.00 | 87 | 1020.8 |
| 20260831141336 | 72 | 5 | 1.0 | 4.0 | 0.00 | 0.10 | 0.00 | 88 | 1021.1 |
| 20260831140846 | 72 | 206 | 0.0 | 5.0 | 0.00 | 0.10 | 0.00 | 88 | 1021.1 |
| 20260831140419 | 72 | 349 | 3.0 | 5.0 | 0.00 | 0.10 | 0.00 | 86 | 1021.1 |
| 20260831140055 | 71 | 0 | 0.0 | 6.0 | 0.00 | 0.10 | 0.00 | 88 | 1020.9 |
| 20260831135845 | 71 | 38 | 1.0 | 6.0 | 0.00 | 0.10 | 0.00 | 88 | 1021.3 |
| 20260831135335 | 71 | 350 | 1.0 | 3.0 | 0.00 | 0.10 | 0.00 | 89 | 1021.0 |
| 20260831134845 | 71 | 168 | 1.0 | 3.0 | 0.00 | 0.10 | 0.00 | 89 | 1021.0 |
| 20260831134616 | 70 | 9 | 0.0 | 3.0 | 0.00 | 0.10 | 0.00 | 89 | 1020.6 |
| 20260831134603 | 70 | 0 | 1.0 | 3.0 | 0.00 | 0.10 | 0.00 | 88 | 1020.8 |
| 20260831134337 | 70 | 355 | 2.0 | 3.0 | 0.00 | 0.10 | 0.00 | 90 | 1021.0 |
| 20260831133847 | 70 | 350 | 0.0 | 3.0 | 0.00 | 0.10 | 0.00 | 90 | 1021.0 |
| 20260831133359 | 70 | 33 | 1.0 | 3.0 | 0.00 | 0.10 | 0.00 | 90 | 1021.1 |
| 20260831133109 | 69 | 5 | 1.0 | 5.0 | 0.00 | 0.10 | 0.00 | 90 | 1020.5 |
| 20260831133103 | 69 | 340 | 1.0 | 5.0 | 0.00 | 0.10 | 0.00 | 90 | 1020.7 |
| 20260831132844 | 70 | 344 | 0.0 | 5.0 | 0.00 | 0.10 | 0.00 | 91 | 1021.1 |
| 20260831132334 | 69 | 331 | 1.0 | 5.0 | 0.00 | 0.10 | 0.00 | 91 | 1021.1 |
| 20260831131846 | 69 | 360 | 1.0 | 5.0 | 0.00 | 0.10 | 0.00 | 92 | 1021.0 |
| 20260831131624 | 68 | 17 | 1.0 | 5.0 | 0.00 | 0.10 | 0.00 | 92 | 1020.5 |
| 20260831131557 | 68 | 9 | 2.0 | 5.0 | 0.00 | 0.10 | 0.00 | 91 | 1020.7 |
| 20260831131337 | 68 | 329 | 3.0 | 5.0 | 0.00 | 0.10 | 0.00 | 92 | 1021.1 |
| 20260831130848 | 68 | 346 | 3.0 | 4.0 | 0.00 | 0.10 | 0.00 | 93 | 1021.1 |
| 20260831130343 | 68 | 360 | 1.0 | 4.0 | 0.00 | 0.10 | 0.00 | 93 | 1021.0 |
| 20260831130105 | 67 | 37 | 0.0 | 4.0 | 0.00 | 0.10 | 0.00 | 93 | 1020.5 |
| 20260831130047 | 67 | 0 | 0.0 | 4.0 | 0.00 | 0.10 | 0.00 | 93 | 1020.7 |
| 20260831125850 | 68 | 323 | 1.0 | 4.0 | 0.00 | 0.10 | 0.00 | 94 | 1020.9 |
| 20260831125400 | 67 | 19 | 1.0 | 3.0 | 0.00 | 0.10 | 0.00 | 94 | 1021.0 |
| 20260831124905 | 67 | 40 | 1.0 | 4.0 | 0.00 | 0.10 | 0.00 | 94 | 1021.1 |
| 20260831124617 | 66 | 5 | 0.0 | 4.0 | 0.00 | 0.10 | 0.00 | 94 | 1020.5 |
| 20260831124555 | 66 | 0 | 0.0 | 4.0 | 0.00 | 0.10 | 0.00 | 93 | 1020.7 |
| 20260831124338 | 67 | 5 | 2.0 | 4.0 | 0.00 | 0.10 | 0.00 | 94 | 1021.0 |
| 20260831123904 | 67 | 23 | 2.0 | 3.0 | 0.00 | 0.10 | 0.00 | 94 | 1021.1 |
| 20260831123339 | 66 | 32 | 0.0 | 2.0 | 0.00 | 0.10 | 0.00 | 94 | 1021.2 |
| 20260831123121 | 66 | 32 | 0.0 | 2.0 | 0.00 | 0.10 | 0.00 | 94 | 1020.6 |
| 20260831123054 | 66 | 0 | 0.0 | 3.0 | 0.00 | 0.10 | 0.00 | 93 | 1020.8 |
| 20260831122846 | 66 | 345 | 1.0 | 3.0 | 0.00 | 0.10 | 0.00 | 94 | 1021.1 |
| 20260831122338 | 66 | 360 | 0.0 | 4.0 | 0.00 | 0.10 | 0.00 | 94 | 1021.1 |
| 20260831121848 | 66 | 360 | 2.0 | 4.0 | 0.00 | 0.10 | 0.00 | 94 | 1021.0 |
| 20260831121612 | 66 | 5 | 1.0 | 4.0 | 0.00 | 0.10 | 0.00 | 94 | 1020.6 |
| 20260831121546 | 66 | 23 | 1.0 | 4.0 | 0.00 | 0.10 | 0.00 | 94 | 1020.7 |
| 20260831121338 | 66 | 302 | 1.0 | 4.0 | 0.00 | 0.10 | 0.00 | 94 | 1021.1 |
| 20260831120849 | 66 | 342 | 2.0 | 3.0 | 0.00 | 0.10 | 0.00 | 94 | 1020.8 |
| 20260831120341 | 66 | 336 | 1.0 | 3.0 | 0.00 | 0.10 | 0.00 | 94 | 1020.9 |
| 20260831120122 | 65 | 335 | 0.0 | 3.0 | 0.00 | 0.10 | 0.00 | 94 | 1020.4 |
| 20260831120046 | 65 | 0 | 1.0 | 3.0 | 0.00 | 0.10 | 0.00 | 94 | 1020.4 |
| 20260831115846 | 66 | 24 | 2.0 | 3.0 | 0.00 | 0.10 | 0.00 | 94 | 1020.9 |
| 20260831115357 | 66 | 15 | 1.0 | 3.0 | 0.00 | 0.10 | 0.00 | 94 | 1021.0 |
| 20260831114845 | 66 | 322 | 1.0 | 3.0 | 0.00 | 0.10 | 0.00 | 94 | 1021.0 |
| 20260831114609 | 65 | 14 | 0.0 | 3.0 | 0.00 | 0.10 | 0.00 | 94 | 1020.3 |
| 20260831114552 | 65 | 0 | 0.0 | 3.0 | 0.00 | 0.10 | 0.00 | 94 | 1020.3 |
| 20260831114355 | 65 | 355 | 0.0 | 3.0 | 0.00 | 0.10 | 0.00 | 94 | 1020.7 |
| 20260831113846 | 65 | 302 | 1.0 | 2.0 | 0.00 | 0.10 | 0.00 | 94 | 1020.7 |
| 20260831113357 | 65 | 350 | 1.0 | 4.0 | 0.00 | 0.10 | 0.00 | 94 | 1020.6 |
| 20260831113116 | 65 | 360 | 1.0 | 4.0 | 0.00 | 0.10 | 0.00 | 94 | 1020.2 |
| 20260831113102 | 65 | 360 | 1.0 | 4.0 | 0.00 | 0.10 | 0.00 | 94 | 1020.2 |
| 20260831112845 | 65 | 360 | 2.0 | 4.0 | 0.00 | 0.10 | 0.00 | 94 | 1020.7 |
| 20260831112335 | 65 | 15 | 0.0 | 1.0 | 0.00 | 0.10 | 0.00 | 94 | 1020.7 |
| 20260831111845 | 65 | 15 | 0.0 | 1.0 | 0.00 | 0.10 | 0.00 | 94 | 1020.7 |
| 20260831111614 | 65 | 314 | 0.0 | 2.0 | 0.00 | 0.10 | 0.00 | 94 | 1020.3 |
| 20260831111545 | 65 | 0 | 0.0 | 3.0 | 0.00 | 0.10 | 0.00 | 93 | 1020.3 |
| 20260831111355 | 65 | 314 | 0.0 | 2.0 | 0.00 | 0.10 | 0.00 | 94 | 1020.7 |
| 20260831110846 | 65 | 348 | 1.0 | 3.0 | 0.00 | 0.10 | 0.00 | 94 | 1020.6 |
| 20260831110357 | 65 | 342 | 0.0 | 1.0 | 0.00 | 0.10 | 0.00 | 94 | 1020.5 |
| 20260831110123 | 65 | 28 | 0.0 | 0.0 | 0.00 | 0.10 | 0.00 | 94 | 1019.9 |
| 20260831110045 | 65 | 0 | 0.0 | 0.0 | 0.00 | 0.10 | 0.00 | 93 | 1020.0 |
| 20260831105844 | 65 | 28 | 0.0 | 0.0 | 0.00 | 0.10 | 0.00 | 94 | 1020.4 |
| 20260831105353 | 65 | 28 | 0.0 | 0.0 | 0.00 | 0.10 | 0.00 | 94 | 1020.4 |
| 20260831104845 | 65 | 16 | 0.0 | 1.0 | 0.00 | 0.10 | 0.00 | 94 | 1020.3 |
| 20260831104616 | 65 | 16 | 0.0 | 1.0 | 0.00 | 0.10 | 0.00 | 94 | 1019.8 |
| 20260831104556 | 65 | 0 | 0.0 | 1.0 | 0.00 | 0.10 | 0.00 | 93 | 1019.8 |
| 20260831104337 | 66 | 16 | 0.0 | 0.0 | 0.00 | 0.10 | 0.00 | 94 | 1020.2 |
| 20260831103848 | 66 | 305 | 0.0 | 0.0 | 0.00 | 0.10 | 0.00 | 94 | 1020.2 |
| 20260831103338 | 66 | 333 | 0.0 | 0.0 | 0.00 | 0.10 | 0.00 | 94 | 1020.2 |
| 20260831103103 | 65 | 355 | 0.0 | 0.0 | 0.00 | 0.10 | 0.00 | 94 | 1019.7 |
| 20260831103044 | 65 | 0 | 0.0 | 0.0 | 0.00 | 0.10 | 0.00 | 93 | 1019.7 |
| 20260831102845 | 66 | 355 | 0.0 | 0.0 | 0.00 | 0.10 | 0.00 | 94 | 1020.2 |
| 20260831102336 | 66 | 322 | 0.0 | 3.0 | 0.00 | 0.10 | 0.00 | 94 | 1020.1 |
| 20260831101845 | 66 | 360 | 1.0 | 3.0 | 0.00 | 0.10 | 0.00 | 94 | 1020.1 |
| 20260831101618 | 65 | 313 | 0.0 | 2.0 | 0.00 | 0.10 | 0.00 | 94 | 1019.5 |
| 20260831101547 | 65 | 0 | 0.0 | 2.0 | 0.00 | 0.10 | 0.00 | 93 | 1019.6 |
| 20260831101340 | 66 | 313 | 0.0 | 2.0 | 0.00 | 0.10 | 0.00 | 94 | 1019.8 |
| 20260831100850 | 66 | 331 | 0.0 | 1.0 | 0.00 | 0.10 | 0.00 | 94 | 1019.9 |
| 20260831100342 | 66 | 331 | 0.0 | 1.0 | 0.00 | 0.10 | 0.00 | 94 | 1019.8 |
| 20260831100047 | 66 | 0 | 0.0 | 1.0 | 0.00 | 0.10 | 0.00 | 93 | 1019.5 |
| 20260831095849 | 66 | 331 | 0.0 | 1.0 | 0.00 | 0.10 | 0.00 | 94 | 1019.9 |
| 20260831095337 | 66 | 331 | 0.0 | 0.0 | 0.00 | 0.10 | 0.00 | 94 | 1019.8 |
| 20260831094845 | 66 | 331 | 0.0 | 1.0 | 0.00 | 0.10 | 0.00 | 94 | 1019.8 |
| 20260831094610 | 66 | 331 | 0.0 | 1.0 | 0.00 | 0.10 | 0.00 | 94 | 1019.3 |
| 20260831094604 | 66 | 0 | 0.0 | 1.0 | 0.00 | 0.10 | 0.00 | 93 | 1019.4 |
| 20260831094417 | 66 | 331 | 0.0 | 1.0 | 0.00 | 0.10 | 0.00 | 94 | 1019.8 |
| 20260831093845 | 66 | 331 | 0.0 | 0.0 | 0.00 | 0.10 | 0.00 | 94 | 1019.8 |
| 20260831093356 | 66 | 331 | 0.0 | 0.0 | 0.00 | 0.10 | 0.00 | 94 | 1019.9 |
| 20260831093138 | 66 | 0 | 0.0 | 0.0 | 0.00 | 0.10 | 0.00 | 93 | 1019.4 |
| 20260831093117 | 66 | 331 | 0.0 | 0.0 | 0.00 | 0.10 | 0.00 | 94 | 1019.4 |
| 20260831092843 | 66 | 331 | 0.0 | 0.0 | 0.00 | 0.10 | 0.00 | 94 | 1019.8 |
| 20260831092351 | 67 | 331 | 0.0 | 1.0 | 0.00 | 0.10 | 0.00 | 94 | 1019.8 |
| 20260831091841 | 67 | 331 | 0.0 | 1.0 | 0.00 | 0.10 | 0.00 | 94 | 1019.9 |
| 20260831091609 | 66 | 331 | 0.0 | 1.0 | 0.00 | 0.10 | 0.00 | 94 | 1019.5 |
| 20260831091549 | 66 | 331 | 0.0 | 1.0 | 0.00 | 0.10 | 0.00 | 93 | 1019.4 |
| 20260831091352 | 67 | 331 | 0.0 | 0.0 | 0.00 | 0.10 | 0.00 | 94 | 1019.8 |
| 20260831090843 | 67 | 331 | 0.0 | 0.0 | 0.00 | 0.10 | 0.00 | 94 | 1019.8 |
| 20260831090356 | 67 | 331 | 0.0 | 1.0 | 0.00 | 0.10 | 0.00 | 94 | 1019.7 |
| 20260831090110 | 66 | 331 | 0.0 | 1.0 | 0.00 | 0.10 | 0.00 | 94 | 1019.3 |
| 20260831090056 | 66 | 0 | 0.0 | 1.0 | 0.00 | 0.10 | 0.00 | 93 | 1019.3 |
| 20260831085904 | 67 | 331 | 0.0 | 1.0 | 0.00 | 0.10 | 0.00 | 94 | 1019.7 |
| 20260831085414 | 67 | 331 | 0.0 | 1.0 | 0.00 | 0.10 | 0.00 | 94 | 1019.7 |
| 20260831084843 | 67 | 331 | 0.0 | 1.0 | 0.00 | 0.10 | 0.00 | 94 | 1019.6 |
| 20260831084629 | 66 | 0 | 0.0 | 1.0 | 0.00 | 0.10 | 0.00 | 93 | 1019.2 |
| 20260831084614 | 66 | 331 | 0.0 | 1.0 | 0.00 | 0.10 | 0.00 | 94 | 1019.2 |
| 20260831084353 | 67 | 317 | 0.0 | 1.0 | 0.00 | 0.10 | 0.00 | 94 | 1019.7 |
| 20260831083906 | 67 | 26 | 0.0 | 0.0 | 0.00 | 0.10 | 0.00 | 94 | 1019.7 |
| 20260831083356 | 67 | 18 | 0.0 | 0.0 | 0.00 | 0.10 | 0.00 | 94 | 1019.7 |
| 20260831083122 | 66 | 18 | 0.0 | 0.0 | 0.00 | 0.10 | 0.00 | 94 | 1019.3 |
| 20260831083049 | 66 | 0 | 0.0 | 0.0 | 0.00 | 0.10 | 0.00 | 93 | 1019.4 |
| 20260831082844 | 67 | 18 | 0.0 | 0.0 | 0.00 | 0.10 | 0.00 | 94 | 1019.7 |
| 20260831082354 | 67 | 18 | 0.0 | 2.0 | 0.00 | 0.10 | 0.00 | 94 | 1019.7 |
| 20260831081845 | 67 | 18 | 1.0 | 2.0 | 0.00 | 0.10 | 0.00 | 94 | 1019.7 |
| 20260831081613 | 66 | 18 | 0.0 | 2.0 | 0.00 | 0.10 | 0.00 | 94 | 1019.3 |
| 20260831081556 | 66 | 0 | 0.0 | 1.0 | 0.00 | 0.10 | 0.00 | 93 | 1019.3 |
| 20260831081355 | 67 | 18 | 0.0 | 1.0 | 0.00 | 0.10 | 0.00 | 94 | 1019.8 |
| 20260831080846 | 67 | 18 | 0.0 | 1.0 | 0.00 | 0.10 | 0.00 | 94 | 1019.7 |
| 20260831080358 | 67 | 18 | 0.0 | 0.0 | 0.00 | 0.10 | 0.00 | 94 | 1019.6 |
| 20260831080116 | 66 | 0 | 0.0 | 0.0 | 0.00 | 0.10 | 0.00 | 93 | 1019.2 |
| 20260831080105 | 66 | 18 | 0.0 | 0.0 | 0.00 | 0.10 | 0.00 | 93 | 1019.2 |
| 20260831075845 | 67 | 18 | 0.0 | 0.0 | 0.00 | 0.10 | 0.00 | 93 | 1019.6 |
| 20260831075355 | 67 | 18 | 0.0 | 0.0 | 0.00 | 0.10 | 0.00 | 93 | 1019.5 |
| 20260831074846 | 67 | 18 | 0.0 | 0.0 | 0.00 | 0.10 | 0.00 | 93 | 1019.5 |
| 20260831074616 | 67 | 18 | 0.0 | 0.0 | 0.00 | 0.10 | 0.00 | 93 | 1019.1 |
| 20260831074551 | 67 | 0 | 0.0 | 0.0 | 0.00 | 0.10 | 0.00 | 93 | 1019.1 |
| 20260831074336 | 67 | 18 | 0.0 | 0.0 | 0.00 | 0.10 | 0.00 | 93 | 1019.5 |
| 20260831073847 | 67 | 18 | 0.0 | 0.0 | 0.00 | 0.10 | 0.00 | 93 | 1019.4 |
| 20260831073359 | 67 | 18 | 0.0 | 1.0 | 0.00 | 0.10 | 0.00 | 93 | 1019.6 |
| 20260831073105 | 67 | 18 | 0.0 | 1.0 | 0.00 | 0.10 | 0.00 | 93 | 1019.2 |
| 20260831073050 | 67 | 0 | 0.0 | 1.0 | 0.00 | 0.10 | 0.00 | 93 | 1019.3 |
| 20260831072847 | 67 | 18 | 0.0 | 1.0 | 0.00 | 0.10 | 0.00 | 93 | 1019.6 |
| 20260831072338 | 67 | 18 | 0.0 | 1.0 | 0.00 | 0.10 | 0.00 | 93 | 1019.5 |
| 20260831071847 | 67 | 18 | 0.0 | 1.0 | 0.00 | 0.10 | 0.00 | 93 | 1019.5 |
| 20260831071615 | 67 | 18 | 0.0 | 0.0 | 0.00 | 0.10 | 0.00 | 93 | 1019.1 |
| 20260831071601 | 67 | 0 | 0.0 | 0.0 | 0.00 | 0.10 | 0.00 | 93 | 1019.1 |
| 20260831071342 | 67 | 18 | 0.0 | 0.0 | 0.00 | 0.10 | 0.00 | 93 | 1019.6 |
| 20260831070854 | 67 | 18 | 0.0 | 1.0 | 0.00 | 0.10 | 0.00 | 93 | 1019.6 |
| 20260831070346 | 67 | 18 | 0.0 | 1.0 | 0.00 | 0.10 | 0.00 | 93 | 1019.7 |
| 20260831070111 | 67 | 18 | 0.0 | 1.0 | 0.00 | 0.10 | 0.00 | 93 | 1019.2 |
| 20260831070052 | 67 | 0 | 0.0 | 1.0 | 0.00 | 0.10 | 0.00 | 93 | 1019.3 |
| 20260831065853 | 67 | 18 | 0.0 | 1.0 | 0.00 | 0.10 | 0.00 | 93 | 1019.6 |
| 20260831065341 | 67 | 18 | 0.0 | 1.0 | 0.00 | 0.10 | 0.00 | 93 | 1019.6 |
| 20260831064851 | 67 | 18 | 0.0 | 1.0 | 0.00 | 0.10 | 0.00 | 93 | 1019.7 |
| 20260831064616 | 67 | 18 | 0.0 | 1.0 | 0.00 | 0.10 | 0.00 | 93 | 1019.3 |
| 20260831064551 | 67 | 0 | 0.0 | 1.0 | 0.00 | 0.10 | 0.00 | 92 | 1019.4 |
| 20260831064342 | 68 | 18 | 0.0 | 1.0 | 0.00 | 0.10 | 0.00 | 93 | 1019.7 |
| 20260831063911 | 68 | 18 | 0.0 | 1.0 | 0.00 | 0.10 | 0.00 | 93 | 1019.7 |
| 20260831063420 | 68 | 18 | 0.0 | 1.0 | 0.00 | 0.10 | 0.00 | 93 | 1019.6 |
| 20260831063121 | 67 | 18 | 0.0 | 1.0 | 0.00 | 0.10 | 0.00 | 93 | 1019.1 |
| 20260831063102 | 67 | 0 | 0.0 | 1.0 | 0.00 | 0.10 | 0.00 | 92 | 1019.3 |
| 20260831062844 | 68 | 18 | 0.0 | 1.0 | 0.00 | 0.10 | 0.00 | 93 | 1019.6 |
| 20260831062354 | 68 | 18 | 0.0 | 1.0 | 0.00 | 0.10 | 0.00 | 93 | 1019.7 |
| 20260831061846 | 68 | 18 | 0.0 | 1.0 | 0.00 | 0.10 | 0.00 | 93 | 1019.5 |
| 20260831061610 | 68 | 18 | 0.0 | 1.0 | 0.00 | 0.10 | 0.00 | 93 | 1019.0 |
| 20260831061554 | 68 | 0 | 0.0 | 1.0 | 0.00 | 0.10 | 0.00 | 92 | 1019.1 |
| 20260831061357 | 68 | 18 | 0.0 | 1.0 | 0.00 | 0.10 | 0.00 | 93 | 1019.4 |
| 20260831060845 | 69 | 18 | 0.0 | 1.0 | 0.00 | 0.10 | 0.00 | 93 | 1019.4 |
| 20260831060354 | 69 | 18 | 0.0 | 1.0 | 0.00 | 0.10 | 0.00 | 93 | 1019.6 |
| 20260831060114 | 68 | 18 | 0.0 | 1.0 | 0.00 | 0.10 | 0.00 | 93 | 1019.2 |
| 20260831060056 | 68 | 0 | 0.0 | 1.0 | 0.00 | 0.10 | 0.00 | 92 | 1019.3 |
| 20260831055839 | 69 | 18 | 0.0 | 1.0 | 0.00 | 0.10 | 0.00 | 93 | 1019.6 |
| 20260831055349 | 69 | 18 | 1.0 | 1.0 | 0.00 | 0.10 | 0.00 | 93 | 1019.5 |
| 20260831054840 | 69 | 329 | 0.0 | 1.0 | 0.00 | 0.10 | 0.00 | 93 | 1019.4 |
| 20260831054610 | 68 | 329 | 0.0 | 2.0 | 0.00 | 0.10 | 0.00 | 93 | 1018.8 |
| 20260831054547 | 68 | 0 | 0.0 | 2.0 | 0.00 | 0.10 | 0.00 | 92 | 1019.0 |
| 20260831054350 | 69 | 329 | 0.0 | 2.0 | 0.00 | 0.10 | 0.00 | 93 | 1019.2 |
| 20260831053839 | 69 | 9 | 1.0 | 2.0 | 0.00 | 0.10 | 0.00 | 93 | 1019.2 |
| 20260831053351 | 69 | 19 | 1.0 | 2.0 | 0.00 | 0.10 | 0.00 | 93 | 1019.3 |
| 20260831053116 | 68 | 355 | 0.0 | 2.0 | 0.00 | 0.10 | 0.00 | 93 | 1018.9 |
| 20260831053059 | 68 | 13 | 0.0 | 0.0 | 0.00 | 0.10 | 0.00 | 92 | 1019.1 |
| 20260831052838 | 69 | 296 | 0.0 | 0.0 | 0.00 | 0.10 | 0.00 | 93 | 1019.3 |
| 20260831052349 | 69 | 296 | 0.0 | 0.0 | 0.00 | 0.10 | 0.00 | 93 | 1019.2 |
| 20260831051839 | 69 | 296 | 0.0 | 0.0 | 0.00 | 0.10 | 0.00 | 93 | 1019.2 |
| 20260831051624 | 69 | 296 | 0.0 | 0.0 | 0.00 | 0.10 | 0.00 | 93 | 1018.9 |
| 20260831051547 | 69 | 0 | 0.0 | 1.0 | 0.00 | 0.10 | 0.00 | 92 | 1019.0 |
| 20260831051350 | 69 | 296 | 0.0 | 1.0 | 0.00 | 0.10 | 0.00 | 93 | 1019.3 |
| 20260831050840 | 69 | 296 | 0.0 | 3.0 | 0.00 | 0.10 | 0.00 | 93 | 1019.3 |
| 20260831050352 | 69 | 296 | 1.0 | 4.0 | 0.00 | 0.10 | 0.00 | 93 | 1019.2 |
| 20260831050117 | 69 | 284 | 1.0 | 4.0 | 0.00 | 0.10 | 0.00 | 93 | 1018.8 |
| 20260831050103 | 69 | 280 | 1.0 | 4.0 | 0.00 | 0.10 | 0.00 | 92 | 1019.0 |
| 20260831045838 | 69 | 284 | 2.0 | 3.0 | 0.00 | 0.10 | 0.00 | 93 | 1019.2 |
| 20260831045348 | 69 | 283 | 1.0 | 3.0 | 0.00 | 0.10 | 0.00 | 93 | 1019.3 |
| 20260831044858 | 69 | 283 | 1.0 | 2.0 | 0.00 | 0.10 | 0.00 | 93 | 1019.3 |
| 20260831044605 | 69 | 293 | 1.0 | 2.0 | 0.00 | 0.10 | 0.00 | 93 | 1018.9 |
| 20260831044552 | 69 | 293 | 1.0 | 3.0 | 0.00 | 0.10 | 0.00 | 92 | 1019.0 |
| 20260831044348 | 69 | 293 | 1.0 | 3.0 | 0.00 | 0.10 | 0.00 | 93 | 1019.2 |
| 20260831043839 | 70 | 293 | 1.0 | 3.0 | 0.00 | 0.10 | 0.00 | 93 | 1019.2 |
| 20260831043351 | 70 | 285 | 0.0 | 2.0 | 0.00 | 0.10 | 0.00 | 92 | 1019.2 |
| 20260831043115 | 69 | 285 | 0.0 | 2.0 | 0.00 | 0.10 | 0.00 | 92 | 1018.7 |
| 20260831043050 | 69 | 0 | 1.0 | 2.0 | 0.00 | 0.10 | 0.00 | 92 | 1018.9 |
| 20260831042858 | 70 | 296 | 1.0 | 2.0 | 0.00 | 0.10 | 0.00 | 92 | 1019.2 |
| 20260831042346 | 70 | 288 | 1.0 | 2.0 | 0.00 | 0.10 | 0.00 | 92 | 1019.1 |
| 20260831041836 | 70 | 293 | 0.0 | 1.0 | 0.00 | 0.10 | 0.00 | 93 | 1019.1 |
| 20260831041614 | 70 | 293 | 0.0 | 1.0 | 0.00 | 0.10 | 0.00 | 93 | 1018.8 |
| 20260831041549 | 70 | 0 | 0.0 | 3.0 | 0.00 | 0.10 | 0.00 | 92 | 1018.9 |
| 20260831041346 | 70 | 293 | 0.0 | 3.0 | 0.00 | 0.10 | 0.00 | 93 | 1019.2 |
| 20260831040841 | 70 | 293 | 0.0 | 3.0 | 0.00 | 0.10 | 0.00 | 93 | 1019.2 |
| 20260831040352 | 70 | 290 | 1.0 | 3.0 | 0.00 | 0.10 | 0.00 | 93 | 1019.1 |
| 20260831040109 | 70 | 302 | 1.0 | 3.0 | 0.00 | 0.10 | 0.00 | 93 | 1018.8 |
| 20260831040055 | 70 | 302 | 1.0 | 3.0 | 0.01 | 0.10 | 0.00 | 92 | 1018.8 |
| 20260831035836 | 70 | 292 | 1.0 | 3.0 | 0.01 | 0.10 | 0.10 | 93 | 1019.1 |
| 20260831035346 | 71 | 275 | 1.0 | 2.0 | 0.01 | 0.10 | 0.10 | 93 | 1019.0 |
| 20260831034835 | 71 | 302 | 2.0 | 2.0 | 0.01 | 0.10 | 0.10 | 93 | 1019.1 |
| 20260831034559 | 70 | 298 | 1.0 | 2.0 | 0.01 | 0.10 | 0.10 | 92 | 1018.8 |
| 20260831034508 | 70 | 298 | 1.0 | 2.0 | 0.01 | 0.10 | 0.10 | 93 | 1018.7 |
| 20260831034407 | 71 | 298 | 1.0 | 2.0 | 0.01 | 0.10 | 0.10 | 93 | 1019.1 |
| 20260831033854 | 71 | 313 | 0.0 | 2.0 | 0.01 | 0.10 | 0.10 | 93 | 1019.2 |
| 20260831033344 | 71 | 303 | 1.0 | 2.0 | 0.02 | 0.10 | 0.10 | 93 | 1019.2 |
| 20260831033103 | 70 | 303 | 0.0 | 2.0 | 0.02 | 0.10 | 0.10 | 93 | 1018.8 |
| 20260831033058 | 70 | 0 | 0.0 | 1.0 | 0.02 | 0.10 | 0.10 | 92 | 1018.8 |
| 20260831032848 | 71 | 300 | 0.0 | 1.0 | 0.02 | 0.10 | 0.10 | 93 | 1019.2 |
| 20260831032417 | 71 | 300 | 0.0 | 2.0 | 0.02 | 0.10 | 0.10 | 93 | 1019.2 |
| 20260831031844 | 71 | 300 | 0.0 | 2.0 | 0.02 | 0.10 | 0.10 | 93 | 1019.3 |
| 20260831031606 | 71 | 286 | 0.0 | 1.0 | 0.02 | 0.10 | 0.10 | 93 | 1019.0 |
| 20260831031546 | 71 | 0 | 0.0 | 2.0 | 0.02 | 0.10 | 0.10 | 92 | 1019.0 |
| 20260831031352 | 71 | 286 | 0.0 | 2.0 | 0.02 | 0.10 | 0.10 | 92 | 1019.4 |
| 20260831030840 | 71 | 286 | 0.0 | 3.0 | 0.02 | 0.10 | 0.10 | 92 | 1019.5 |
| 20260831030350 | 71 | 249 | 1.0 | 4.0 | 0.02 | 0.10 | 0.10 | 92 | 1019.6 |
| 20260831030116 | 71 | 304 | 1.0 | 6.0 | 0.02 | 0.10 | 0.10 | 92 | 1019.4 |
| 20260831030051 | 71 | 298 | 1.0 | 8.0 | 0.01 | 0.09 | 0.09 | 92 | 1019.5 |
| 20260831025855 | 71 | 315 | 2.0 | 8.0 | 0.01 | 0.09 | 0.09 | 92 | 1019.8 |
| 20260831025344 | 71 | 290 | 3.0 | 8.0 | 0.01 | 0.09 | 0.09 | 93 | 1019.7 |
| 20260831024854 | 72 | 342 | 1.0 | 5.0 | 0.01 | 0.09 | 0.09 | 93 | 1019.8 |
| 20260831024639 | 71 | 276 | 2.0 | 5.0 | 0.01 | 0.09 | 0.09 | 93 | 1019.4 |
| 20260831024558 | 71 | 0 | 1.0 | 6.0 | 0.01 | 0.09 | 0.09 | 93 | 1019.5 |
| 20260831024406 | 72 | 278 | 1.0 | 3.0 | 0.01 | 0.09 | 0.09 | 93 | 1019.9 |
| 20260831023915 | 72 | 284 | 2.0 | 3.0 | 0.01 | 0.09 | 0.09 | 93 | 1019.7 |
| 20260831023345 | 72 | 313 | 2.0 | 3.0 | 0.00 | 0.08 | 0.08 | 93 | 1019.7 |
| 20260831023110 | 71 | 306 | 0.0 | 2.0 | 0.01 | 0.08 | 0.08 | 93 | 1019.3 |
| 20260831023046 | 71 | 0 | 0.0 | 3.0 | 0.01 | 0.08 | 0.08 | 93 | 1019.4 |
| 20260831022853 | 72 | 306 | 1.0 | 3.0 | 0.01 | 0.08 | 0.08 | 93 | 1019.6 |
| 20260831022343 | 72 | 301 | 1.0 | 3.0 | 0.01 | 0.08 | 0.08 | 93 | 1019.7 |
| 20260831021855 | 72 | 284 | 0.0 | 2.0 | 0.01 | 0.08 | 0.08 | 93 | 1019.6 |
| 20260831021608 | 71 | 242 | 0.0 | 2.0 | 0.01 | 0.08 | 0.08 | 93 | 1019.2 |
| 20260831021554 | 71 | 242 | 0.0 | 2.0 | 0.01 | 0.08 | 0.08 | 92 | 1019.3 |
| 20260831021344 | 72 | 242 | 1.0 | 2.0 | 0.01 | 0.08 | 0.08 | 93 | 1019.6 |
| 20260831020916 | 72 | 225 | 1.0 | 2.0 | 0.02 | 0.08 | 0.08 | 93 | 1019.7 |
| 20260831020346 | 72 | 242 | 0.0 | 2.0 | 0.02 | 0.08 | 0.08 | 93 | 1019.7 |
| 20260831020112 | 72 | 252 | 0.0 | 2.0 | 0.02 | 0.08 | 0.08 | 93 | 1019.3 |
| 20260831020056 | 72 | 0 | 0.0 | 2.0 | 0.02 | 0.08 | 0.08 | 92 | 1019.4 |
| 20260831015853 | 72 | 252 | 1.0 | 2.0 | 0.03 | 0.08 | 0.08 | 93 | 1019.7 |
| 20260831015344 | 72 | 290 | 0.0 | 1.0 | 0.03 | 0.08 | 0.08 | 93 | 1019.7 |
| 20260831014855 | 72 | 290 | 0.0 | 1.0 | 0.03 | 0.08 | 0.08 | 93 | 1019.6 |
| 20260831014614 | 72 | 290 | 0.0 | 1.0 | 0.03 | 0.08 | 0.08 | 93 | 1019.2 |
| 20260831014553 | 72 | 0 | 0.0 | 1.0 | 0.03 | 0.08 | 0.08 | 92 | 1019.3 |
| 20260831014345 | 72 | 290 | 0.0 | 1.0 | 0.04 | 0.08 | 0.08 | 93 | 1019.5 |
| 20260831013855 | 72 | 290 | 0.0 | 0.0 | 0.04 | 0.08 | 0.08 | 93 | 1019.5 |
| 20260831013408 | 72 | 290 | 0.0 | 0.0 | 0.04 | 0.08 | 0.08 | 93 | 1019.4 |
| 20260831013115 | 72 | 290 | 0.0 | 0.0 | 0.03 | 0.07 | 0.07 | 93 | 1019.1 |
| 20260831013048 | 72 | 0 | 0.0 | 0.0 | 0.03 | 0.07 | 0.07 | 92 | 1019.2 |
| 20260831012854 | 72 | 290 | 0.0 | 0.0 | 0.03 | 0.07 | 0.07 | 93 | 1019.5 |
| 20260831012344 | 73 | 290 | 0.0 | 0.0 | 0.04 | 0.07 | 0.07 | 92 | 1019.5 |
| 20260831011855 | 73 | 290 | 0.0 | 0.0 | 0.04 | 0.07 | 0.07 | 92 | 1019.4 |
| 20260831011605 | 72 | 290 | 0.0 | 1.0 | 0.05 | 0.07 | 0.07 | 92 | 1019.0 |
| 20260831011600 | 72 | 0 | 0.0 | 1.0 | 0.05 | 0.07 | 0.07 | 92 | 1019.2 |
| 20260831011345 | 73 | 290 | 0.0 | 1.0 | 0.05 | 0.07 | 0.07 | 93 | 1019.4 |
| 20260831010836 | 73 | 290 | 0.0 | 1.0 | 0.04 | 0.06 | 0.06 | 92 | 1019.4 |
| 20260831010348 | 73 | 290 | 0.0 | 1.0 | 0.05 | 0.06 | 0.06 | 92 | 1019.5 |
| 20260831010112 | 72 | 290 | 0.0 | 0.0 | 0.05 | 0.06 | 0.06 | 92 | 1018.9 |
| 20260831005854 | 73 | 290 | 0.0 | 1.0 | 0.04 | 0.05 | 0.05 | 92 | 1019.3 |
| 20260831005344 | 73 | 290 | 0.0 | 2.0 | 0.04 | 0.05 | 0.05 | 92 | 1019.3 |
| 20260831004839 | 73 | 294 | 1.0 | 2.0 | 0.05 | 0.05 | 0.05 | 92 | 1019.3 |
| 20260831004605 | 73 | 240 | 0.0 | 1.0 | 0.05 | 0.05 | 0.05 | 92 | 1018.8 |
| 20260831004555 | 73 | 0 | 0.0 | 2.0 | 0.04 | 0.04 | 0.04 | 91 | 1019.0 |
| 20260831004350 | 73 | 240 | 0.0 | 2.0 | 0.04 | 0.04 | 0.04 | 92 | 1019.2 |
| 20260831003841 | 73 | 240 | 1.0 | 2.0 | 0.04 | 0.04 | 0.04 | 92 | 1019.2 |
| 20260831003353 | 73 | 265 | 0.0 | 2.0 | 0.04 | 0.04 | 0.04 | 92 | 1019.2 |
| 20260831003112 | 73 | 265 | 0.0 | 1.0 | 0.04 | 0.04 | 0.04 | 92 | 1018.8 |
| 20260831003052 | 73 | 0 | 0.0 | 1.0 | 0.04 | 0.04 | 0.04 | 91 | 1019.0 |
| 20260831002839 | 73 | 265 | 0.0 | 1.0 | 0.03 | 0.03 | 0.03 | 92 | 1019.2 |
| 20260831002350 | 74 | 292 | 0.0 | 1.0 | 0.03 | 0.03 | 0.03 | 92 | 1019.1 |
| 20260831001840 | 74 | 292 | 0.0 | 1.0 | 0.03 | 0.03 | 0.03 | 91 | 1019.0 |
| 20260831001607 | 73 | 292 | 0.0 | 1.0 | 0.02 | 0.02 | 0.02 | 91 | 1018.6 |
| 20260831001554 | 73 | 0 | 0.0 | 2.0 | 0.02 | 0.02 | 0.02 | 91 | 1018.8 |
| 20260831001350 | 74 | 292 | 0.0 | 2.0 | 0.02 | 0.02 | 0.02 | 91 | 1018.9 |
| 20260831000841 | 74 | 292 | 1.0 | 2.0 | 0.02 | 0.02 | 0.02 | 91 | 1018.9 |
| 20260831000355 | 74 | 246 | 0.0 | 1.0 | 0.01 | 0.01 | 0.01 | 91 | 1018.8 |
| 20260831000118 | 74 | 246 | 0.0 | 1.0 | 0.01 | 0.01 | 0.01 | 91 | 1018.4 |
| 20260831000048 | 74 | 0 | 0.0 | 1.0 | 0.01 | 0.01 | 0.01 | 90 | 1018.5 |
| 20260830235840 | 74 | 246 | 0.0 | 1.0 | 0.01 | 0.01 | 0.01 | 91 | 1018.8 |
| 20260830235350 | 74 | 246 | 0.0 | 1.0 | 0.01 | 0.01 | 0.01 | 90 | 1018.7 |
| 20260830234841 | 74 | 246 | 0.0 | 1.0 | 0.00 | 0.00 | 0.00 | 90 | 1018.6 |
| 20260830234616 | 74 | 246 | 0.0 | 1.0 | 0.00 | 0.00 | 0.00 | 90 | 1018.2 |
| 20260830234554 | 74 | 0 | 0.0 | 2.0 | 0.00 | 0.00 | 0.00 | 90 | 1018.4 |
| 20260830234352 | 75 | 246 | 0.0 | 2.0 | 0.00 | 0.00 | 0.00 | 90 | 1018.6 |
| 20260830233842 | 75 | 246 | 0.0 | 2.0 | 0.00 | 0.00 | 0.00 | 89 | 1018.5 |
| 20260830233352 | 75 | 246 | 1.0 | 2.0 | 0.00 | 0.00 | 0.00 | 89 | 1018.5 |
| 20260830233117 | 74 | 246 | 0.0 | 1.0 | 0.00 | 0.00 | 0.00 | 89 | 1018.0 |
| 20260830233111 | 74 | 0 | 0.0 | 1.0 | 0.00 | 0.00 | 0.00 | 89 | 1018.2 |
| 20260830232839 | 75 | 246 | 0.0 | 1.0 | 0.00 | 0.00 | 0.00 | 89 | 1018.4 |
| 20260830232349 | 75 | 246 | 0.0 | 0.0 | 0.00 | 0.00 | 0.00 | 89 | 1018.4 |
| 20260830231839 | 75 | 246 | 0.0 | 0.0 | 0.00 | 0.00 | 0.00 | 88 | 1018.3 |
| 20260830231607 | 75 | 246 | 0.0 | 0.0 | 0.00 | 0.00 | 0.00 | 88 | 1017.9 |
| 20260830231552 | 75 | 0 | 0.0 | 2.0 | 0.00 | 0.00 | 0.00 | 88 | 1018.1 |
| 20260830231349 | 75 | 246 | 0.0 | 2.0 | 0.00 | 0.00 | 0.00 | 88 | 1018.2 |
| 20260830230839 | 76 | 246 | 0.0 | 2.0 | 0.00 | 0.00 | 0.00 | 88 | 1018.2 |
| 20260830230351 | 76 | 246 | 0.0 | 1.0 | 0.00 | 0.00 | 0.00 | 88 | 1018.3 |